Location: Betz
(49.1556°N, 2.9558°E)
Time: 08:32:15
(UTC+00:00)

Cosmos 2082 - Pass Details

Date: 18 September 2019
Orbit: 834 x 855 km, 71.0° (Epoch: 20 October)

Event Time Altitude Azimuth Distance (km) Brightness Sun altitude
Exits shadow 20:35:02 66° 143° (SE) 931 3.6 -25.1°
Maximum altitude 20:35:27 69° 114° (ESE) 915 3.6 -25.2°
Drops below altitude 10° 20:41:08 10° 32° (NNE) 2,494 6.2 -25.9°
Sets 20:43:37 0° 30° (NNE) 3,432 7.0 -26.2°
